Lapeer, MI

8:59 AM EDT on July 21, 2017 (GMT -0400)
Lapeer

Weather History for KD95 - April, 2014

Change the Weather History Date:

Tuesday, April 8, 2014

  Actual Average (KFNT) Record (KFNT)
Temperature  
Mean Temperature 46 °F -  
Max Temperature 58 °F 51 °F 76 °F (1991)
Min Temperature 33 °F 31 °F 8 °F (1982)
Degree Days  
Heating Degree Days 20    
Moisture  
Dew Point 33 °F    
Average Humidity 69    
Maximum Humidity 97    
Minimum Humidity 32    
Precipitation  
Precipitation 0.00 in - - ()
Sea Level Pressure  
Sea Level Pressure 29.61 in    
Wind  
Wind Speed 5 mph (NW)    
Max Wind Speed 15 mph    
Max Gust Speed 20 mph    
Visibility 9 miles    
Events Rain    
Averages and records for this station are not official NWS values.
T = Trace of Precipitation, MM = Missing Value Source: NWS Daily Summary

Daily Weather History Graph

Daily Weather History Graph

Search for Another Location

Airport or City:

Trip Planner

Search our weather history database for the weather conditions in past years. The results will help you decide how hot, cold, wet, or windy it might be!

Date:

Astronomy

Apr. 08, 2014 Rise Set
Actual Time 7:02 AM EDT 8:07 PM EDT
Civil Twilight 6:33 AM EDT 8:36 PM EDT
Nautical Twilight 5:59 AM EDT 9:11 PM EDT
Astronomical Twilight 5:22 AM EDT 9:48 PM EDT
Moon 1:51 PM EDT (4/8) 3:24 AM EDT (4/8)
Length of Visible Light 14h 02m
Length of Day
13h 04m
Waxing Gibbous, 62% of the Moon is Illuminated
Apr 8
Waxing Gibbous
Apr 15
Full
Apr 22
Last Quarter
Apr 29
New
May 6
First Quarter

Hourly Weather History & Observations

Time (EDT) Temp. Windchill Dew Point Humidity Pressure Visibility Wind Dir Wind Speed Gust Speed Precip Events Conditions
12:13 AM 38.8 °F 36.5 °F 36.9 °F 93% 29.50 in 7.0 mi NNE 3.5 mph - N/A   Drizzle
12:34 AM 38.5 °F - 37.0 °F 95% 29.49 in 5.0 mi Calm Calm - N/A Rain Rain
12:54 AM 38.5 °F 35.0 °F 37.0 °F 95% 29.49 in 5.0 mi North 4.6 mph - N/A   Heavy Drizzle
1:14 AM 38.3 °F 34.8 °F 37.0 °F 95% 29.49 in 4.0 mi North 4.6 mph - N/A Rain Rain
1:34 AM 38.1 °F 35.7 °F 37.0 °F 96% 29.48 in 4.0 mi NNW 3.5 mph - N/A Rain Rain
1:53 AM 37.8 °F 34.2 °F 36.9 °F 97% 29.48 in 4.0 mi NW 4.6 mph - N/A Rain Rain
2:14 AM 37.6 °F 33.1 °F 36.7 °F 97% 29.48 in 4.0 mi NW 5.8 mph - N/A Rain Light Rain
2:34 AM 37.6 °F 35.1 °F 36.7 °F 97% 29.47 in 4.0 mi NW 3.5 mph - N/A Rain Light Rain
2:54 AM 37.0 °F 34.5 °F 36.0 °F 96% 29.47 in 5.0 mi NNW 3.5 mph - N/A Rain Rain
3:14 AM 36.9 °F 34.3 °F 36.0 °F 97% 29.47 in 5.0 mi NW 3.5 mph - N/A   Light Drizzle
3:34 AM 36.5 °F 31.0 °F 35.6 °F 97% 29.47 in 5.0 mi NW 6.9 mph - N/A   Overcast
3:54 AM 36.1 °F 30.6 °F 35.1 °F 96% 29.48 in 5.0 mi NW 6.9 mph - N/A   Overcast
4:14 AM 35.8 °F 31.9 °F 34.7 °F 96% 29.48 in 5.0 mi NW 4.6 mph - N/A   Overcast
4:34 AM 35.6 °F 31.7 °F 34.0 °F 94% 29.48 in 7.0 mi WNW 4.6 mph - N/A   Overcast
4:54 AM 35.6 °F 32.8 °F 33.8 °F 93% 29.48 in 7.0 mi WNW 3.5 mph - N/A   Overcast
5:14 AM 35.4 °F 32.6 °F 33.8 °F 94% 29.48 in 7.0 mi WNW 3.5 mph - N/A   Overcast
5:34 AM 35.1 °F 32.2 °F 33.3 °F 93% 29.49 in 7.0 mi WNW 3.5 mph - N/A   Overcast
5:54 AM 34.9 °F 30.8 °F 32.9 °F 92% 29.50 in 10.0 mi WNW 4.6 mph - N/A   Mostly Cloudy
6:14 AM 34.7 °F - 32.0 °F 90% 29.50 in 10.0 mi Calm Calm - N/A   Mostly Cloudy
6:34 AM 34.2 °F - 32.0 °F 92% 29.51 in 10.0 mi Calm Calm - N/A   Overcast
6:54 AM 33.8 °F - 32.0 °F 93% 29.53 in 10.0 mi Calm Calm - N/A   Overcast
7:14 AM 33.8 °F 30.8 °F 31.8 °F 92% 29.54 in 10.0 mi West 3.5 mph - N/A   Mostly Cloudy
7:34 AM 33.8 °F 30.8 °F 31.5 °F 91% 29.55 in 10.0 mi WNW 3.5 mph - N/A   Scattered Clouds
7:54 AM 34.7 °F 30.6 °F 31.5 °F 88% 29.56 in 10.0 mi WNW 4.6 mph - N/A   Clear
8:14 AM 35.4 °F 32.6 °F 31.6 °F 86% 29.57 in 10.0 mi NW 3.5 mph - N/A   Clear
8:34 AM 36.5 °F 31.8 °F 31.8 °F 83% 29.58 in 10.0 mi NW 5.8 mph - N/A   Clear
8:54 AM 37.0 °F 31.6 °F 31.5 °F 80% 29.58 in 10.0 mi NW 6.9 mph - N/A   Clear
9:14 AM 37.4 °F 32.8 °F 31.6 °F 80% 29.59 in 10.0 mi NW 5.8 mph - N/A   Clear
9:34 AM 38.7 °F 34.3 °F 31.5 °F 75% 29.60 in 10.0 mi NW 5.8 mph - N/A   Clear
9:54 AM 40.1 °F 34.7 °F 31.8 °F 72% 29.60 in 10.0 mi NW 8.1 mph - N/A   Clear
10:14 AM 41.9 °F 39.0 °F 32.2 °F 68% 29.61 in 10.0 mi NNW 4.6 mph - N/A   Clear
10:34 AM 43.7 °F 42.1 °F 32.0 °F 63% 29.61 in 10.0 mi NNW 3.5 mph - N/A   Clear
10:54 AM 46.2 °F 42.2 °F 31.5 °F 56% 29.61 in 10.0 mi North 8.1 mph - N/A   Clear
11:14 AM 47.8 °F - 31.5 °F 53% 29.63 in 10.0 mi North 8.1 mph - N/A   Clear
11:33 AM 48.9 °F - 30.9 °F 50% 29.63 in 10.0 mi West 8.1 mph - N/A   Mostly Cloudy
11:54 AM 50.0 °F - 30.7 °F 48% 29.64 in 10.0 mi NW 6.9 mph - N/A   Overcast
12:14 PM 49.6 °F - 29.7 °F 46% 29.65 in 10.0 mi West 6.9 mph - N/A   Overcast
12:34 PM 50.0 °F - 29.3 °F 45% 29.65 in 10.0 mi West 6.9 mph - N/A   Overcast
12:54 PM 50.5 °F - 27.9 °F 42% 29.64 in 10.0 mi NW 8.1 mph - N/A   Overcast
1:14 PM 51.6 °F - 28.2 °F 41% 29.64 in 10.0 mi WNW 8.1 mph - N/A   Overcast
1:34 PM 52.9 °F - 28.2 °F 39% 29.65 in 10.0 mi West 9.2 mph 17.3 mph N/A   Mostly Cloudy
1:54 PM 53.8 °F - 25.3 °F 33% 29.64 in 10.0 mi West 13.8 mph - N/A   Scattered Clouds
2:13 PM 54.9 °F - 25.2 °F 32% 29.64 in 10.0 mi West 9.2 mph - N/A   Clear
2:34 PM 56.3 °F - 29.7 °F 36% 29.64 in 10.0 mi West 15.0 mph 19.6 mph N/A   Clear
2:54 PM 56.8 °F - 29.5 °F 35% 29.64 in 10.0 mi WNW 12.7 mph 19.6 mph N/A   Clear
3:14 PM 57.2 °F - 32.4 °F 39% 29.64 in 10.0 mi WNW 10.4 mph 17.3 mph N/A   Clear
3:34 PM 57.9 °F - 30.2 °F 35% 29.64 in 10.0 mi NNW 11.5 mph 17.3 mph N/A   Scattered Clouds
3:54 PM 58.3 °F - 30.4 °F 35% 29.64 in 10.0 mi NNW 5.8 mph 16.1 mph N/A   Scattered Clouds
4:14 PM 57.2 °F - 31.8 °F 38% 29.64 in 10.0 mi North 10.4 mph 17.3 mph N/A   Overcast
4:34 PM 57.2 °F - 32.5 °F 39% 29.64 in 10.0 mi WNW 6.9 mph - N/A   Overcast
4:54 PM 58.1 °F - 31.6 °F 37% 29.64 in 10.0 mi WNW 8.1 mph - N/A   Overcast
5:14 PM 57.2 °F - 30.0 °F 36% 29.64 in 10.0 mi NW 8.1 mph - N/A   Overcast
5:34 PM 57.6 °F - 28.9 °F 34% 29.65 in 10.0 mi WNW 11.5 mph - N/A   Overcast
5:54 PM 56.7 °F - 28.8 °F 34% 29.66 in 10.0 mi NW 8.1 mph - N/A   Overcast
6:14 PM 56.7 °F - 30.6 °F 37% 29.66 in 10.0 mi NNW 9.2 mph - N/A   Overcast
6:34 PM 55.4 °F - 32.5 °F 42% 29.67 in 10.0 mi North 11.5 mph - N/A   Overcast
6:54 PM 54.1 °F - 34.3 °F 47% 29.69 in 10.0 mi North 8.1 mph - N/A Rain Light Rain
7:14 PM 53.6 °F - 34.0 °F 47% 29.70 in 10.0 mi NNW 15.0 mph 19.6 mph N/A   Overcast
7:34 PM 53.8 °F - 32.0 °F 44% 29.70 in 10.0 mi WNW 8.1 mph - N/A   Overcast
7:54 PM 50.7 °F - 36.9 °F 59% 29.72 in 10.0 mi NE 8.1 mph - N/A   Overcast
8:14 PM 49.3 °F - 38.3 °F 66% 29.73 in 10.0 mi North - - N/A   Overcast
8:54 PM 48.2 °F - 40.1 °F 74% 29.75 in 10.0 mi North - - N/A Rain Light Rain
9:14 PM 46.8 °F - 41.4 °F 81% 29.77 in 10.0 mi North - - N/A   Overcast
9:34 PM 45.9 °F - 39.6 °F 79% 29.78 in 10.0 mi North - - N/A   Mostly Cloudy
9:54 PM 45.1 °F - 38.5 °F 77% 29.78 in 10.0 mi North - - N/A   Mostly Cloudy
10:14 PM 44.8 °F - 38.5 °F 79% 29.79 in 10.0 mi North - - N/A   Overcast
10:34 PM 44.2 °F - 38.7 °F 81% 29.80 in 10.0 mi North - - N/A   Overcast
10:54 PM 43.7 °F - 39.7 °F 86% 29.80 in 10.0 mi North - - N/A   Mostly Cloudy
11:14 PM 43.2 °F - 40.3 °F 90% 29.80 in 10.0 mi North - - N/A   Overcast
11:33 PM 43.0 °F - 39.7 °F 88% 29.80 in 10.0 mi North - - N/A   Overcast
11:54 PM 42.8 °F - 39.4 °F 88% 29.80 in 10.0 mi North - - N/A   Overcast